�N����,����,�~����,�C��,���x,�C��,����,���ϕ���,�ő�u�ԕ���,�ő厞����,���˗�,�I�_���x,�n�����x,�ő啗���N��,DTYPE
"19/08/07","00:10",0.0,26.8,83.4,1003.8,303.6,1.0,1.6,236.7,0.00,23.8,27.5,"00:01:44",1
"19/08/07","00:20",0.0,26.7,83.8,1003.6,312.3,1.1,1.9,348.1,0.00,23.8,27.5,"00:17:28",1
"19/08/07","00:30",0.0,26.5,84.2,1003.6,308.6,1.0,1.4,340.3,0.00,23.7,27.4,"00:26:00",1
"19/08/07","00:40",0.0,26.4,85.1,1003.8,302.2,0.8,1.7,314.8,0.00,23.7,27.5,"00:30:16",1
"19/08/07","00:50",0.0,26.3,85.3,1003.6,311.5,0.8,1.6,336.9,0.00,23.7,27.2,"00:40:08",1
"19/08/07","01:00",0.0,26.2,85.7,1003.8,300.3,0.6,1.1,313.1,0.00,23.7,27.4,"00:55:12",1
"19/08/07","01:10",0.0,26.1,86.1,1003.6,287.9,0.7,1.1,309.8,0.00,23.6,27.1,"01:09:04",1
"19/08/07","01:20",0.0,26.1,86.3,1003.6,297.5,0.7,1.3,314.7,0.00,23.7,27.2,"01:19:36",1
"19/08/07","01:30",0.0,26.1,86.4,1003.6,277.0,0.8,1.3,293.5,0.00,23.7,27.0,"01:28:24",1
"19/08/07","01:40",0.0,26.1,86.4,1003.6,305.4,0.7,1.4,292.3,0.00,23.7,26.9,"01:32:08",1
"19/08/07","01:50",0.0,26.0,86.6,1003.8,308.8,0.7,1.8,332.0,0.00,23.6,26.9,"01:41:04",1
"19/08/07","02:00",0.0,26.0,86.8,1003.8,321.1,1.0,1.3,314.6,0.00,23.7,27.0,"01:51:28",1
"19/08/07","02:10",0.0,25.7,86.9,1004.1,301.4,0.5,1.2,316.5,0.00,23.4,26.9,"02:09:12",1
"19/08/07","02:20",0.0,25.7,87.9,1004.1,322.3,0.7,1.1,326.0,0.00,23.6,27.0,"02:10:08",1
"19/08/07","02:30",0.0,25.6,88.0,1003.8,304.9,0.6,1.2,309.7,0.00,23.5,26.9,"02:29:44",1
"19/08/07","02:40",0.0,25.5,88.4,1004.1,293.2,0.8,1.2,323.5,0.00,23.5,26.7,"02:30:08",1
"19/08/07","02:50",0.0,25.7,88.2,1003.8,299.0,0.8,1.1,313.3,0.00,23.6,26.8,"02:43:12",1
"19/08/07","03:00",0.0,25.7,88.3,1003.8,293.4,0.7,1.1,297.0,0.00,23.7,26.8,"02:58:56",1
"19/08/07","03:10",0.0,25.7,88.3,1004.1,298.4,0.7,1.2,295.7,0.00,23.7,26.7,"03:07:36",1
"19/08/07","03:20",0.0,25.9,88.2,1003.8,309.9,0.7,1.6,342.3,0.00,23.8,26.8,"03:18:56",1
"19/08/07","03:30",0.0,25.8,88.0,1003.8,310.3,0.7,1.3,314.4,0.00,23.7,26.7,"03:23:12",1
"19/08/07","03:40",0.0,25.8,88.1,1004.1,317.5,0.6,1.3,330.9,0.00,23.7,26.9,"03:39:04",1
"19/08/07","03:50",0.0,25.8,88.5,1004.1,326.6,1.1,1.4,335.6,0.00,23.8,26.6,"03:48:40",1
"19/08/07","04:00",0.0,25.8,88.6,1003.8,336.2,0.7,1.4,342.4,0.00,23.8,26.7,"03:58:32",1
"19/08/07","04:10",0.0,25.7,88.9,1004.3,311.5,0.7,1.4,321.8,0.00,23.8,26.7,"04:01:04",1
"19/08/07","04:20",0.0,25.6,89.1,1004.3,300.0,0.3,0.8,335.4,0.00,23.7,26.6,"04:10:32",1
"19/08/07","04:30",0.0,25.7,89.1,1004.3,314.2,0.8,1.3,340.0,0.00,23.8,26.6,"04:26:40",1
"19/08/07","04:40",0.0,25.7,89.0,1004.5,301.8,0.8,1.7,309.3,0.00,23.8,26.5,"04:33:04",1
"19/08/07","04:50",0.0,25.7,89.1,1004.5,307.0,0.5,1.0,320.5,0.00,23.8,26.7,"04:44:24",1
"19/08/07","05:00",0.0,25.7,89.1,1004.5,324.1,0.7,1.3,339.5,0.00,23.8,26.6,"04:56:08",1
"19/08/07","05:10",0.0,25.6,89.2,1004.8,327.5,0.8,1.1,329.2,0.00,23.7,26.7,"05:09:20",1
"19/08/07","05:20",0.0,25.5,89.7,1004.8,312.3,0.6,1.0,330.9,0.00,23.7,26.4,"05:10:40",1
"19/08/07","05:30",0.0,25.3,89.8,1004.8,296.0,0.5,0.8,341.5,0.00,23.5,26.5,"05:20:02",1
"19/08/07","05:40",0.0,25.2,90.3,1004.8,324.5,0.7,1.2,324.3,0.00,23.5,26.2,"05:34:16",1
"19/08/07","05:50",0.0,25.2,90.7,1005.0,331.4,0.6,1.1,336.1,0.00,23.6,26.5,"05:41:52",1
"19/08/07","06:00",0.0,25.1,90.8,1005.0,291.7,0.5,0.6,320.5,0.00,23.5,26.4,"05:52:40",1
"19/08/07","06:10",0.0,25.2,90.9,1005.0,305.9,0.6,1.2,324.6,0.00,23.6,26.3,"06:01:44",1
"19/08/07","06:20",0.0,25.4,91.0,1004.8,323.7,0.6,1.3,313.8,0.00,23.9,26.4,"06:11:44",1
"19/08/07","06:30",0.0,25.8,90.8,1005.2,332.1,0.7,1.2,344.9,0.01,24.2,26.4,"06:22:16",1
"19/08/07","06:40",0.0,26.3,90.3,1005.0,339.4,1.1,1.7,337.9,0.03,24.6,26.6,"06:30:48",1
"19/08/07","06:50",0.0,27.1,89.0,1005.0,23.0,0.3,1.6,65.7,0.04,25.2,26.5,"06:46:00",1
"19/08/07","07:00",0.0,27.6,86.8,1004.8,76.5,0.7,2.0,36.6,0.04,25.2,26.4,"06:55:36",1
"19/08/07","07:10",0.0,28.7,81.7,1005.0,99.8,1.1,2.4,104.4,0.08,25.3,26.8,"07:04:40",1
"19/08/07","07:20",0.0,29.1,78.2,1004.3,101.6,1.0,1.9,112.0,0.09,25.0,26.8,"07:11:36",1
"19/08/07","07:30",0.0,29.4,75.2,1004.5,107.1,1.3,2.7,112.7,0.06,24.6,26.9,"07:29:28",1
"19/08/07","07:40",0.0,29.2,75.9,1004.5,113.1,1.0,2.5,76.4,0.04,24.5,26.8,"07:30:40",1
"19/08/07","07:50",0.0,29.5,74.7,1004.5,105.4,1.2,2.6,97.8,0.13,24.6,26.8,"07:43:20",1
"19/08/07","08:00",0.0,29.5,73.2,1004.8,115.2,1.5,2.5,78.8,0.14,24.2,27.0,"07:59:20",1
"19/08/07","08:10",0.0,29.6,73.6,1004.8,133.4,1.5,3.4,135.4,0.19,24.4,27.1,"08:07:20",1
"19/08/07","08:20",0.0,30.3,71.9,1004.8,117.9,1.2,2.6,127.8,0.21,24.7,27.5,"08:13:52",1
"19/08/07","08:30",0.0,30.7,71.2,1005.5,125.5,1.3,2.9,89.3,0.27,24.9,27.5,"08:20:08",1
"19/08/07","08:40",0.0,30.5,70.7,1006.2,147.2,1.6,3.9,170.2,0.24,24.6,27.6,"08:34:56",1
"19/08/07","08:50",0.0,30.5,69.3,1006.2,129.1,1.6,3.1,130.7,0.27,24.3,27.7,"08:41:52",1
"19/08/07","09:00",0.0,30.2,69.0,1006.0,162.0,1.6,3.2,161.7,0.23,23.9,27.9,"08:54:08",1
"19/08/07","09:10",0.0,30.0,68.8,1005.5,143.6,1.8,3.1,132.4,0.18,23.7,27.9,"09:03:28",1
"19/08/07","09:20",0.0,30.6,67.4,1005.5,159.6,1.6,2.9,160.1,0.26,23.9,28.1,"09:11:12",1
"19/08/07","09:30",0.0,30.9,67.0,1005.5,170.2,2.0,4.3,209.8,0.21,24.1,28.2,"09:25:52",1
"19/08/07","09:40",0.0,31.5,65.3,1005.5,156.3,2.0,5.5,225.4,0.31,24.2,28.2,"09:33:36",1
"19/08/07","09:50",0.0,31.8,64.6,1006.0,143.6,1.6,2.9,124.7,0.41,24.3,28.5,"09:40:24",1
"19/08/07","10:00",0.0,31.7,64.8,1006.2,186.3,2.0,4.0,228.0,0.40,24.3,28.8,"09:50:32",1
"19/08/07","10:10",0.0,31.7,63.7,1006.2,181.5,2.0,4.7,200.6,0.35,24.0,28.8,"10:06:24",1
"19/08/07","10:20",0.0,32.3,62.9,1006.2,179.8,1.7,3.9,130.7,0.38,24.4,28.9,"10:17:28",1
"19/08/07","10:30",0.0,32.6,61.1,1006.4,153.3,1.7,3.5,226.1,0.50,24.2,29.2,"10:22:40",1
"19/08/07","10:40",0.0,32.8,60.1,1006.4,150.5,1.3,2.9,211.2,0.41,24.1,29.5,"10:35:20",1
"19/08/07","10:50",0.0,32.8,60.1,1006.7,180.4,1.0,2.8,134.7,0.41,24.1,29.7,"10:47:44",1
"19/08/07","11:00",0.0,32.7,58.9,1006.4,89.1,0.8,3.1,125.0,0.32,23.6,29.8,"10:53:04",1
"19/08/07","11:10",0.0,33.8,57.5,1006.4,52.8,1.5,3.2,138.4,0.56,24.3,30.1,"11:09:04",1
"19/08/07","11:20",0.0,33.6,55.9,1006.4,143.8,1.6,3.1,140.2,0.55,23.6,30.4,"11:11:52",1
"19/08/07","11:30",0.0,34.5,58.3,1006.2,172.5,1.3,3.4,173.4,0.57,25.2,30.8,"11:20:08",1
"19/08/07","11:40",0.0,34.1,54.6,1006.2,93.5,1.3,3.3,207.1,0.52,23.7,30.9,"11:37:44",1
"19/08/07","11:50",0.0,34.4,55.0,1006.2,173.8,1.7,3.6,123.4,0.56,24.1,31.3,"11:49:36",1
"19/08/07","12:00",0.0,34.8,54.6,1006.2,170.5,2.0,4.1,198.1,0.59,24.3,31.5,"11:56:00",1
"19/08/07","12:10",0.0,34.3,56.4,1005.7,154.9,1.8,4.4,185.8,0.53,24.4,31.7,"12:00:16",1
"19/08/07","12:20",0.0,34.7,52.5,1005.7,179.1,2.0,6.2,216.5,0.57,23.6,31.9,"12:15:28",1
"19/08/07","12:30",0.0,34.3,53.0,1005.5,161.1,1.8,3.5,199.9,0.50,23.4,32.2,"12:23:04",1
"19/08/07","12:40",0.0,35.2,50.0,1005.2,176.2,1.7,4.2,194.8,0.62,23.2,32.5,"12:38:48",1
"19/08/07","12:50",0.0,35.4,53.2,1005.7,182.3,2.0,4.1,181.7,0.60,24.5,32.4,"12:43:44",1
"19/08/07","13:00",0.0,33.7,55.1,1005.0,143.0,1.5,3.4,128.6,0.30,23.5,32.7,"12:51:52",1
"19/08/07","13:10",0.0,34.8,56.0,1005.0,139.8,0.8,2.1,143.4,0.28,24.8,32.9,"13:07:12",1
"19/08/07","13:20",0.0,34.9,53.3,1005.0,96.7,1.0,2.5,101.2,0.37,24.0,32.9,"13:11:28",1
"19/08/07","13:30",0.0,34.3,54.8,1005.0,51.8,1.1,2.6,26.3,0.14,23.9,32.7,"13:21:36",1
"19/08/07","13:40",0.0,34.4,54.3,1004.5,81.5,0.6,1.6,46.5,0.21,23.9,32.4,"13:36:32",1
"19/08/07","13:50",0.0,34.6,53.4,1004.8,86.6,0.6,1.8,339.3,0.32,23.8,32.7,"13:40:24",1
"19/08/07","14:00",0.0,34.7,55.3,1004.5,112.5,1.0,1.8,125.0,0.22,24.5,32.7,"13:52:56",1
"19/08/07","14:10",0.0,34.3,55.6,1004.3,85.7,0.8,2.7,137.7,0.15,24.2,32.4,"14:03:12",1
"19/08/07","14:20",0.0,33.9,57.7,1004.1,35.6,0.8,2.2,16.1,0.11,24.4,32.2,"14:19:04",1
"19/08/07","14:30",0.0,34.6,58.8,1003.8,42.4,1.0,2.6,349.7,0.22,25.4,32.3,"14:25:52",1
"19/08/07","14:40",0.0,35.3,54.2,1003.8,23.8,1.6,3.1,6.5,0.51,24.7,32.1,"14:39:52",1
"19/08/07","14:50",0.0,35.3,53.2,1004.1,54.6,1.3,2.7,35.9,0.22,24.4,32.2,"14:48:56",1
"19/08/07","15:00",0.0,34.5,53.9,1003.4,107.0,1.0,2.2,78.7,0.04,23.8,31.8,"14:56:40",1
"19/08/07","15:10",0.0,33.8,56.6,1003.1,76.1,0.8,2.7,125.4,0.01,24.0,31.8,"15:05:28",1
"19/08/07","15:20",0.2,32.3,63.3,1002.9,188.0,3.5,7.7,220.0,0.00,24.5,31.3,"15:17:52",1
"19/08/07","15:30",8.4,29.5,73.0,1001.5,248.3,2.2,6.0,201.5,0.00,24.2,30.9,"15:22:40",1
"19/08/07","15:40",3.8,27.9,80.6,1000.5,329.8,2.6,4.9,348.1,0.05,24.3,30.3,"15:34:40",1
"19/08/07","15:50",0.2,27.8,84.6,1001.0,343.1,1.2,4.0,321.2,0.18,25.0,30.1,"15:40:48",1
"19/08/07","16:00",0.0,27.9,85.8,1000.8,335.5,1.6,4.2,347.0,0.17,25.3,30.1,"15:53:20",1
"19/08/07","16:10",0.0,28.4,85.9,1001.2,300.3,0.7,2.5,350.7,0.16,25.8,30.0,"16:05:36",1
"19/08/07","16:20",0.0,29.3,84.0,1001.0,282.0,0.6,1.9,345.3,0.21,26.4,30.1,"16:11:52",1
"19/08/07","16:30",0.0,30.7,81.9,1001.2,283.6,0.6,1.7,332.4,0.39,27.3,30.2,"16:27:12",1
"19/08/07","16:40",0.0,30.7,79.7,1001.7,287.0,0.6,1.9,353.2,0.34,26.8,30.1,"16:39:12",1
"19/08/07","16:50",0.0,31.5,77.2,1001.9,2.7,1.0,1.9,338.0,0.31,27.1,30.2,"16:40:16",1
"19/08/07","17:00",0.0,32.1,72.9,1002.6,354.2,0.7,1.9,335.0,0.28,26.7,30.4,"16:52:56",1
"19/08/07","17:10",0.0,32.7,69.6,1002.9,338.8,0.5,1.7,1.1,0.20,26.4,30.2,"17:00:08",1
"19/08/07","17:20",0.0,32.7,69.0,1002.6,346.9,0.6,1.7,330.9,0.13,26.3,30.2,"17:18:16",1
"19/08/07","17:30",0.0,32.7,68.6,1002.6,323.6,0.5,1.4,349.4,0.11,26.2,30.3,"17:23:20",1
"19/08/07","17:40",0.0,32.2,72.8,1002.4,291.7,0.6,1.3,345.7,0.10,26.7,30.2,"17:31:28",1
"19/08/07","17:50",0.0,31.9,74.4,1002.2,346.6,1.1,2.0,342.3,0.12,26.8,30.2,"17:44:16",1
"19/08/07","18:00",0.0,31.9,75.5,1002.2,347.4,1.1,2.4,343.2,0.09,27.1,30.2,"17:53:36",1
"19/08/07","18:10",0.0,31.8,75.9,1002.2,349.2,0.8,2.2,336.0,0.03,27.1,30.2,"18:07:52",1
"19/08/07","18:20",0.0,31.4,77.0,1002.2,320.4,1.0,1.8,351.0,0.01,26.9,30.1,"18:11:28",1
"19/08/07","18:30",0.0,30.7,78.7,1002.2,276.7,0.6,1.4,237.2,0.00,26.6,30.2,"18:20:56",1
"19/08/07","18:40",0.0,30.1,80.0,1001.9,258.5,0.6,1.4,251.8,0.00,26.3,30.2,"18:36:16",1
"19/08/07","18:50",0.0,29.5,81.3,1001.9,283.8,0.7,2.0,331.3,0.00,26.0,30.0,"18:46:16",1
"19/08/07","19:00",0.0,29.4,82.1,1001.7,311.4,1.0,3.2,346.5,0.00,26.1,29.7,"18:51:20",1
"19/08/07","19:10",0.0,29.0,82.7,1001.5,322.3,1.2,2.6,336.1,0.00,25.8,29.7,"19:07:20",1
"19/08/07","19:20",0.0,28.9,83.5,1001.5,311.4,0.5,1.4,343.8,0.00,25.9,29.6,"19:10:40",1
"19/08/07","19:30",0.0,28.6,84.0,1001.7,310.2,0.7,1.6,345.7,0.00,25.7,29.6,"19:20:48",1
"19/08/07","19:40",0.0,28.2,84.9,1002.2,308.0,0.3,0.9,315.8,0.00,25.5,29.6,"19:30:08",1
"19/08/07","19:50",0.0,28.0,85.6,1002.6,319.7,0.7,1.6,343.6,0.00,25.4,29.4,"19:49:44",1
"19/08/07","20:00",0.0,27.9,86.4,1002.6,292.0,0.6,1.2,334.6,0.00,25.5,29.4,"19:50:48",1
"19/08/07","20:10",0.0,27.5,86.4,1002.6,278.6,0.7,1.4,246.7,0.00,25.1,29.3,"20:04:48",1
"19/08/07","20:20",0.0,27.4,87.2,1002.9,310.5,0.6,1.3,331.4,0.00,25.1,29.1,"20:18:16",1
"19/08/07","20:30",0.0,27.3,87.6,1003.1,301.0,0.7,1.2,337.3,0.00,25.1,29.0,"20:21:44",1
"19/08/07","20:40",0.0,27.0,87.4,1003.4,294.4,0.8,1.3,281.0,0.00,24.8,29.1,"20:37:12",1
"19/08/07","20:50",0.0,26.8,87.7,1003.4,293.1,1.0,1.6,262.9,0.00,24.6,29.0,"20:45:52",1
"19/08/07","21:00",0.0,26.8,87.9,1003.6,325.0,1.3,2.6,335.3,0.00,24.7,28.7,"20:54:32",1
"19/08/07","21:10",0.0,26.8,88.0,1003.6,329.7,1.7,2.9,338.0,0.00,24.7,28.7,"21:05:20",1
"19/08/07","21:20",0.0,26.7,88.0,1003.6,330.0,1.8,3.2,332.3,0.00,24.6,28.7,"21:11:04",1
"19/08/07","21:30",0.0,26.5,88.0,1003.6,327.8,1.5,2.5,342.6,0.00,24.4,28.4,"21:20:40",1
"19/08/07","21:40",0.0,26.4,88.0,1003.8,307.6,1.3,2.0,330.6,0.00,24.3,28.5,"21:35:04",1
"19/08/07","21:50",0.0,26.5,88.1,1003.6,330.4,1.3,2.8,337.2,0.00,24.4,28.3,"21:49:20",1
"19/08/07","22:00",0.0,26.4,88.2,1003.8,317.7,1.5,2.8,344.2,0.00,24.3,28.4,"21:52:00",1
"19/08/07","22:10",0.0,26.3,88.5,1004.1,317.8,0.8,2.0,335.2,0.00,24.3,28.1,"22:06:56",1
"19/08/07","22:20",0.0,26.2,88.6,1003.8,313.1,1.5,2.6,336.7,0.00,24.2,28.2,"22:11:28",1
"19/08/07","22:30",0.0,26.2,88.8,1003.8,309.1,1.2,2.5,331.5,0.00,24.2,28.1,"22:21:12",1
"19/08/07","22:40",0.0,26.1,88.7,1003.6,301.2,1.1,1.8,321.1,0.00,24.1,28.0,"22:36:56",1
"19/08/07","22:50",0.0,26.1,88.8,1003.4,317.7,1.5,3.3,343.2,0.00,24.1,28.0,"22:48:00",1
"19/08/07","23:00",0.0,26.0,88.9,1003.6,320.0,1.2,1.9,328.2,0.00,24.1,28.0,"22:50:16",1
"19/08/07","23:10",0.0,26.0,89.2,1003.6,324.8,1.3,2.2,345.3,0.00,24.1,27.8,"23:08:40",1
"19/08/07","23:20",0.0,25.8,89.4,1003.6,298.0,0.8,1.6,307.5,0.00,24.0,27.9,"23:10:08",1
"19/08/07","23:30",0.0,25.8,89.6,1003.8,326.3,1.2,2.1,343.5,0.00,24.0,27.9,"23:25:28",1
"19/08/07","23:40",0.0,25.7,89.5,1003.6,339.5,1.5,2.6,340.8,0.00,23.9,27.7,"23:33:44",1
"19/08/07","23:50",0.0,25.6,89.4,1003.8,323.1,1.5,2.2,317.0,0.00,23.8,27.8,"23:48:00",1
"19/08/07","24:00",0.0,25.6,89.3,1004.1,314.7,0.5,1.3,326.9,0.00,23.7,27.5,"23:51:20",1
